contact:dominique.lefevre@mio.osupytheas.fr, maurice.libes@osupytheas.fr, didier.mallarino@osupytheas.fr
Project:EMSO http://www.emso-fr.org/EMSO-France
Depth: 2436.0 m
Title:EMSO Ligure Ouest : Data MII capteur MICROCAT
DateTime_Computer,Latitude,Longitude,Temperature,Conductivity,Pressure,DateTime_Instrument
DateTime_Computer,Latitude,Longitude,degC,S m-1,dbar,DateTime_Instrument
2020-06-17T00:01:50Z,42.805,6.029,13.2969,4.59996,2470.087,2020-6-17T02:02:35Z
2020-06-17T00:04:53Z,42.805,6.029,13.2964,4.59993,2470.11,2020-6-17T02:05:38Z
2020-06-17T00:07:56Z,42.805,6.029,13.2967,4.59994,2470.133,2020-6-17T02:08:41Z
2020-06-17T00:11:00Z,42.805,6.029,13.2967,4.59989,2470.133,2020-6-17T02:11:44Z
2020-06-17T00:14:03Z,42.805,6.029,13.2966,4.59991,2470.11,2020-6-17T02:14:47Z
2020-06-17T00:17:06Z,42.805,6.029,13.2968,4.59991,2470.1,2020-6-17T02:17:51Z
2020-06-17T00:20:09Z,42.805,6.029,13.2971,4.59983,2470.087,2020-6-17T02:20:54Z
2020-06-17T00:23:13Z,42.805,6.029,13.2969,4.59983,2470.133,2020-6-17T02:23:57Z
2020-06-17T00:26:16Z,42.805,6.029,13.2964,4.59981,2470.171,2020-6-17T02:27:00Z
2020-06-17T00:29:19Z,42.805,6.029,13.2968,4.60001,2470.11,2020-6-17T02:30:03Z
2020-06-17T00:32:22Z,42.805,6.029,13.2967,4.59990,2470.133,2020-6-17T02:33:07Z
2020-06-17T00:35:26Z,42.805,6.029,13.2968,4.59994,2470.087,2020-6-17T02:36:10Z
2020-06-17T00:38:29Z,42.805,6.029,13.2963,4.59981,2470.124,2020-6-17T02:39:14Z
2020-06-17T00:41:32Z,42.805,6.029,13.2967,4.59986,2470.133,2020-6-17T02:42:17Z
2020-06-17T00:44:36Z,42.805,6.029,13.2964,4.59992,2470.124,2020-6-17T02:45:20Z
2020-06-17T00:47:39Z,42.805,6.029,13.2971,4.59990,2470.124,2020-6-17T02:48:23Z
2020-06-17T00:50:42Z,42.805,6.029,13.2969,4.59987,2470.11,2020-6-17T02:51:27Z
2020-06-17T00:53:45Z,42.805,6.029,13.2968,4.59986,2470.124,2020-6-17T02:54:30Z
2020-06-17T00:56:49Z,42.805,6.029,13.2969,4.59991,2470.124,2020-6-17T02:57:33Z
2020-06-17T00:59:52Z,42.805,6.029,13.2966,4.59992,2470.133,2020-6-17T03:00:36Z
2020-06-17T01:02:55Z,42.805,6.029,13.2971,4.59994,2470.124,2020-6-17T03:03:40Z
2020-06-17T01:05:58Z,42.805,6.029,13.2967,4.59987,2470.124,2020-6-17T03:06:43Z
2020-06-17T01:09:02Z,42.805,6.029,13.2968,4.59989,2470.133,2020-6-17T03:09:46Z
2020-06-17T01:12:05Z,42.805,6.029,13.2967,4.59989,2470.133,2020-6-17T03:12:49Z
2020-06-17T01:15:08Z,42.805,6.029,13.2971,4.59984,2470.147,2020-6-17T03:15:52Z
2020-06-17T01:18:11Z,42.805,6.029,13.2967,4.59985,2470.171,2020-6-17T03:18:56Z
2020-06-17T01:21:14Z,42.805,6.029,13.2970,4.59988,2470.133,2020-6-17T03:21:59Z
2020-06-17T01:24:18Z,42.805,6.029,13.2970,4.59988,2470.11,2020-6-17T03:25:02Z
2020-06-17T01:27:21Z,42.805,6.029,13.2967,4.59990,2470.124,2020-6-17T03:28:06Z
2020-06-17T01:30:25Z,42.805,6.029,13.2972,4.59999,2470.171,2020-6-17T03:31:09Z
2020-06-17T01:33:28Z,42.805,6.029,13.2968,4.59991,2470.133,2020-6-17T03:34:12Z
2020-06-17T01:36:31Z,42.805,6.029,13.2969,4.59984,2470.147,2020-6-17T03:37:16Z
2020-06-17T01:39:34Z,42.805,6.029,13.2967,4.59998,2470.156,2020-6-17T03:40:19Z
2020-06-17T01:42:38Z,42.805,6.029,13.2970,4.59988,2470.147,2020-6-17T03:43:22Z
2020-06-17T01:45:41Z,42.805,6.029,13.2973,4.59999,2470.133,2020-6-17T03:46:25Z
2020-06-17T01:48:44Z,42.805,6.029,13.2966,4.59985,2470.133,2020-6-17T03:49:29Z
2020-06-17T01:51:47Z,42.805,6.029,13.2968,4.60001,2470.147,2020-6-17T03:52:32Z
2020-06-17T01:54:51Z,42.805,6.029,13.2969,4.59994,2470.171,2020-6-17T03:55:35Z
2020-06-17T01:57:54Z,42.805,6.029,13.2970,4.59997,2470.133,2020-6-17T03:58:39Z
2020-06-17T02:00:57Z,42.805,6.029,13.2968,4.59995,2470.171,2020-6-17T04:01:42Z
2020-06-17T02:04:01Z,42.805,6.029,13.2968,4.59993,2470.171,2020-6-17T04:04:45Z
2020-06-17T02:07:04Z,42.805,6.029,13.2968,4.59987,2470.156,2020-6-17T04:07:48Z
2020-06-17T02:10:07Z,42.805,6.029,13.2971,4.59999,2470.18,2020-6-17T04:10:52Z
2020-06-17T02:13:10Z,42.805,6.029,13.2974,4.59998,2470.156,2020-6-17T04:13:55Z
2020-06-17T02:16:14Z,42.805,6.029,13.2969,4.59998,2470.156,2020-6-17T04:16:58Z
2020-06-17T02:19:17Z,42.805,6.029,13.2968,4.59989,2470.18,2020-6-17T04:20:01Z
2020-06-17T02:22:20Z,42.805,6.029,13.2972,4.59995,2470.156,2020-6-17T04:23:05Z
2020-06-17T02:25:23Z,42.805,6.029,13.2968,4.59991,2470.156,2020-6-17T04:26:08Z
2020-06-17T02:28:27Z,42.805,6.029,13.2965,4.59997,2470.147,2020-6-17T04:29:11Z
2020-06-17T02:31:30Z,42.805,6.029,13.2971,4.59991,2470.133,2020-6-17T04:32:14Z
2020-06-17T02:34:33Z,42.805,6.029,13.2968,4.59987,2470.194,2020-6-17T04:35:17Z
2020-06-17T02:37:36Z,42.805,6.029,13.2966,4.59979,2470.156,2020-6-17T04:38:21Z
2020-06-17T02:40:40Z,42.805,6.029,13.2964,4.59982,2470.18,2020-6-17T04:41:24Z
2020-06-17T02:43:43Z,42.805,6.029,13.2968,4.59990,2470.133,2020-6-17T04:44:27Z
2020-06-17T02:46:46Z,42.805,6.029,13.2969,4.59999,2470.156,2020-6-17T04:47:31Z
2020-06-17T02:49:49Z,42.805,6.029,13.2967,4.59989,2470.156,2020-6-17T04:50:34Z
2020-06-17T02:52:52Z,42.805,6.029,13.2968,4.59989,2470.217,2020-6-17T04:53:37Z
2020-06-17T02:55:56Z,42.805,6.029,13.2970,4.60003,2470.133,2020-6-17T04:56:40Z
2020-06-17T02:58:59Z,42.805,6.029,13.2973,4.59996,2470.194,2020-6-17T04:59:43Z
2020-06-17T03:02:02Z,42.805,6.029,13.2969,4.59990,2470.203,2020-6-17T05:02:47Z
2020-06-17T03:05:05Z,42.805,6.029,13.2968,4.59991,2470.18,2020-6-17T05:05:50Z
2020-06-17T03:08:09Z,42.805,6.029,13.2968,4.59996,2470.203,2020-6-17T05:08:53Z
2020-06-17T03:11:12Z,42.805,6.029,13.2963,4.59989,2470.217,2020-6-17T05:11:56Z
2020-06-17T03:14:15Z,42.805,6.029,13.2970,4.59983,2470.24,2020-6-17T05:15:00Z
2020-06-17T03:17:18Z,42.805,6.029,13.2973,4.59987,2470.203,2020-6-17T05:18:03Z
2020-06-17T03:20:22Z,42.805,6.029,13.2971,4.59997,2470.217,2020-6-17T05:21:06Z
2020-06-17T03:23:25Z,42.805,6.029,13.2965,4.59987,2470.166,2020-6-17T05:24:09Z
2020-06-17T03:26:28Z,42.805,6.029,13.2968,4.59985,2470.227,2020-6-17T05:27:12Z
2020-06-17T03:29:31Z,42.805,6.029,13.2968,4.59982,2470.18,2020-6-17T05:30:16Z
2020-06-17T03:32:35Z,42.805,6.029,13.2970,4.59997,2470.18,2020-6-17T05:33:19Z
2020-06-17T03:35:38Z,42.805,6.029,13.2967,4.59991,2470.203,2020-6-17T05:36:23Z
2020-06-17T03:38:41Z,42.805,6.029,13.2967,4.59989,2470.171,2020-6-17T05:39:26Z
2020-06-17T03:41:45Z,42.805,6.029,13.2968,4.59981,2470.18,2020-6-17T05:42:29Z
2020-06-17T03:44:48Z,42.805,6.029,13.2968,4.59982,2470.203,2020-6-17T05:45:32Z
2020-06-17T03:47:51Z,42.805,6.029,13.2971,4.59982,2470.203,2020-6-17T05:48:36Z
2020-06-17T03:50:54Z,42.805,6.029,13.2968,4.59985,2470.203,2020-6-17T05:51:39Z
2020-06-17T03:53:58Z,42.805,6.029,13.2964,4.59982,2470.18,2020-6-17T05:54:42Z
2020-06-17T03:57:01Z,42.805,6.029,13.2969,4.59986,2470.217,2020-6-17T05:57:45Z
2020-06-17T04:00:04Z,42.805,6.029,13.2967,4.59985,2470.18,2020-6-17T06:00:49Z
2020-06-17T04:03:07Z,42.805,6.029,13.2966,4.59980,2470.203,2020-6-17T06:03:52Z
2020-06-17T04:06:11Z,42.805,6.029,13.2964,4.59989,2470.194,2020-6-17T06:06:55Z
2020-06-17T04:09:14Z,42.805,6.029,13.2970,4.59988,2470.18,2020-6-17T06:09:58Z
2020-06-17T04:12:17Z,42.805,6.029,13.2969,4.59986,2470.203,2020-6-17T06:13:01Z
2020-06-17T04:15:20Z,42.805,6.029,13.2968,4.59983,2470.227,2020-6-17T06:16:05Z
2020-06-17T04:18:24Z,42.805,6.029,13.2968,4.59979,2470.203,2020-6-17T06:19:08Z
2020-06-17T04:21:27Z,42.805,6.029,13.2966,4.59980,2470.203,2020-6-17T06:22:11Z
2020-06-17T04:24:30Z,42.805,6.029,13.2966,4.59986,2470.227,2020-6-17T06:25:15Z
2020-06-17T04:27:33Z,42.805,6.029,13.2963,4.59981,2470.203,2020-6-17T06:28:18Z
2020-06-17T04:30:37Z,42.805,6.029,13.2968,4.59980,2470.217,2020-6-17T06:31:21Z
2020-06-17T04:33:40Z,42.805,6.029,13.2967,4.59980,2470.18,2020-6-17T06:34:24Z
2020-06-17T04:36:43Z,42.805,6.029,13.2966,4.59981,2470.203,2020-6-17T06:37:28Z
2020-06-17T04:39:46Z,42.805,6.029,13.2967,4.59981,2470.203,2020-6-17T06:40:31Z
2020-06-17T04:42:50Z,42.805,6.029,13.2968,4.59983,2470.18,2020-6-17T06:43:34Z
2020-06-17T04:45:53Z,42.805,6.029,13.2967,4.59982,2470.18,2020-6-17T06:46:38Z
2020-06-17T04:48:56Z,42.805,6.029,13.2968,4.59981,2470.194,2020-6-17T06:49:41Z
2020-06-17T04:52:00Z,42.805,6.029,13.2967,4.59981,2470.203,2020-6-17T06:52:44Z
2020-06-17T04:55:03Z,42.805,6.029,13.2968,4.59983,2470.203,2020-6-17T06:55:47Z
2020-06-17T04:58:06Z,42.805,6.029,13.2972,4.59979,2470.203,2020-6-17T06:58:51Z
2020-06-17T05:01:09Z,42.805,6.029,13.2968,4.59987,2470.156,2020-6-17T07:01:54Z
2020-06-17T05:04:12Z,42.805,6.029,13.2964,4.59983,2470.203,2020-6-17T07:04:57Z
2020-06-17T05:07:16Z,42.805,6.029,13.2968,4.59986,2470.217,2020-6-17T07:08:00Z
2020-06-17T05:10:19Z,42.805,6.029,13.2970,4.59984,2470.18,2020-6-17T07:11:04Z
2020-06-17T05:13:22Z,42.805,6.029,13.2968,4.59982,2470.194,2020-6-17T07:14:07Z
2020-06-17T05:16:26Z,42.805,6.029,13.2967,4.59981,2470.18,2020-6-17T07:17:10Z
2020-06-17T05:19:29Z,42.805,6.029,13.2964,4.59982,2470.18,2020-6-17T07:20:13Z
2020-06-17T05:22:32Z,42.805,6.029,13.2968,4.59986,2470.203,2020-6-17T07:23:17Z
2020-06-17T05:25:35Z,42.805,6.029,13.2966,4.59984,2470.203,2020-6-17T07:26:20Z
2020-06-17T05:28:39Z,42.805,6.029,13.2969,4.59988,2470.264,2020-6-17T07:29:23Z
2020-06-17T05:31:42Z,42.805,6.029,13.2967,4.59984,2470.203,2020-6-17T07:32:26Z
2020-06-17T05:34:45Z,42.805,6.029,13.2968,4.59980,2470.194,2020-6-17T07:35:30Z
2020-06-17T05:37:48Z,42.805,6.029,13.2969,4.59983,2470.217,2020-6-17T07:38:33Z
2020-06-17T05:40:52Z,42.805,6.029,13.2967,4.59983,2470.203,2020-6-17T07:41:36Z
2020-06-17T05:43:55Z,42.805,6.029,13.2968,4.59989,2470.217,2020-6-17T07:44:39Z
2020-06-17T05:46:58Z,42.805,6.029,13.2966,4.59981,2470.203,2020-6-17T07:47:43Z
2020-06-17T05:50:01Z,42.805,6.029,13.2970,4.59983,2470.194,2020-6-17T07:50:46Z
2020-06-17T05:53:04Z,42.805,6.029,13.2968,4.59985,2470.203,2020-6-17T07:53:49Z
2020-06-17T05:56:08Z,42.805,6.029,13.2971,4.59982,2470.156,2020-6-17T07:56:52Z
2020-06-17T05:59:11Z,42.805,6.029,13.2971,4.59987,2470.203,2020-6-17T07:59:56Z
2020-06-17T06:02:14Z,42.805,6.029,13.2970,4.59980,2470.18,2020-6-17T08:02:59Z
2020-06-17T06:05:18Z,42.805,6.029,13.2967,4.59988,2470.18,2020-6-17T08:06:02Z
2020-06-17T06:08:21Z,42.805,6.029,13.2968,4.59984,2470.217,2020-6-17T08:09:05Z
2020-06-17T06:11:24Z,42.805,6.029,13.2968,4.59979,2470.18,2020-6-17T08:12:08Z
2020-06-17T06:14:27Z,42.805,6.029,13.2969,4.59983,2470.203,2020-6-17T08:15:12Z
2020-06-17T06:17:30Z,42.805,6.029,13.2968,4.59981,2470.156,2020-6-17T08:18:15Z
2020-06-17T06:20:34Z,42.805,6.029,13.2969,4.59981,2470.171,2020-6-17T08:21:18Z
2020-06-17T06:23:37Z,42.805,6.029,13.2970,4.59978,2470.171,2020-6-17T08:24:21Z
2020-06-17T06:26:40Z,42.805,6.029,13.2969,4.59984,2470.203,2020-6-17T08:27:25Z
2020-06-17T06:29:43Z,42.805,6.029,13.2967,4.59979,2470.18,2020-6-17T08:30:28Z
2020-06-17T06:32:47Z,42.805,6.029,13.2969,4.59982,2470.194,2020-6-17T08:33:31Z
2020-06-17T06:35:50Z,42.805,6.029,13.2968,4.59978,2470.156,2020-6-17T08:36:34Z
2020-06-17T06:38:53Z,42.805,6.029,13.2964,4.59976,2470.18,2020-6-17T08:39:38Z
2020-06-17T06:41:56Z,42.805,6.029,13.2967,4.59979,2470.171,2020-6-17T08:42:41Z
2020-06-17T06:45:00Z,42.805,6.029,13.2968,4.59977,2470.227,2020-6-17T08:45:44Z
2020-06-17T06:48:03Z,42.805,6.029,13.2970,4.59978,2470.156,2020-6-17T08:48:47Z
2020-06-17T06:51:06Z,42.805,6.029,13.2968,4.59981,2470.18,2020-6-17T08:51:51Z
2020-06-17T06:54:09Z,42.805,6.029,13.2969,4.59978,2470.18,2020-6-17T08:54:54Z
2020-06-17T06:57:13Z,42.805,6.029,13.2973,4.59979,2470.18,2020-6-17T08:57:57Z
2020-06-17T07:00:16Z,42.805,6.029,13.2969,4.59983,2470.147,2020-6-17T09:01:00Z
2020-06-17T07:03:19Z,42.805,6.029,13.2968,4.59977,2470.156,2020-6-17T09:04:04Z
2020-06-17T07:06:22Z,42.805,6.029,13.2968,4.59978,2470.18,2020-6-17T09:07:07Z
2020-06-17T07:09:26Z,42.805,6.029,13.2968,4.59979,2470.194,2020-6-17T09:10:10Z
2020-06-17T07:12:29Z,42.805,6.029,13.2968,4.59976,2470.133,2020-6-17T09:13:13Z
2020-06-17T07:15:32Z,42.805,6.029,13.2969,4.59976,2470.156,2020-6-17T09:16:17Z
2020-06-17T07:18:35Z,42.805,6.029,13.2965,4.59978,2470.156,2020-6-17T09:19:20Z
2020-06-17T07:21:39Z,42.805,6.029,13.2971,4.59988,2470.156,2020-6-17T09:22:23Z
2020-06-17T07:24:42Z,42.805,6.029,13.2967,4.59976,2470.171,2020-6-17T09:25:26Z
2020-06-17T07:27:45Z,42.805,6.029,13.2967,4.59981,2470.147,2020-6-17T09:28:30Z
2020-06-17T07:30:48Z,42.805,6.029,13.2967,4.59975,2470.133,2020-6-17T09:31:33Z
2020-06-17T07:33:52Z,42.805,6.029,13.2969,4.59978,2470.11,2020-6-17T09:34:36Z
2020-06-17T07:36:55Z,42.805,6.029,13.2968,4.59978,2470.156,2020-6-17T09:37:39Z
2020-06-17T07:39:58Z,42.805,6.029,13.2968,4.59975,2470.133,2020-6-17T09:40:43Z
2020-06-17T07:43:01Z,42.805,6.029,13.2967,4.59978,2470.11,2020-6-17T09:43:46Z
2020-06-17T07:46:05Z,42.805,6.029,13.2971,4.59976,2470.133,2020-6-17T09:46:49Z
2020-06-17T07:49:08Z,42.805,6.029,13.2971,4.59976,2470.11,2020-6-17T09:49:52Z
2020-06-17T07:52:11Z,42.805,6.029,13.2968,4.59976,2470.087,2020-6-17T09:52:56Z
2020-06-17T07:55:14Z,42.805,6.029,13.2966,4.59975,2470.133,2020-6-17T09:55:59Z
2020-06-17T07:58:18Z,42.805,6.029,13.2967,4.59980,2470.133,2020-6-17T09:59:02Z
2020-06-17T08:01:21Z,42.805,6.029,13.2967,4.59978,2470.087,2020-6-17T10:02:05Z
2020-06-17T08:04:24Z,42.805,6.029,13.2966,4.59974,2470.087,2020-6-17T10:05:09Z
2020-06-17T08:07:27Z,42.805,6.029,13.2969,4.59979,2470.11,2020-6-17T10:08:12Z
2020-06-17T08:10:31Z,42.805,6.029,13.2967,4.59979,2470.11,2020-6-17T10:11:15Z
2020-06-17T08:13:34Z,42.805,6.029,13.2968,4.59978,2470.087,2020-6-17T10:14:18Z
2020-06-17T08:16:37Z,42.805,6.029,13.2968,4.59979,2470.133,2020-6-17T10:17:22Z
2020-06-17T08:19:40Z,42.805,6.029,13.2967,4.59976,2470.11,2020-6-17T10:20:25Z
2020-06-17T08:22:44Z,42.805,6.029,13.2970,4.59981,2470.11,2020-6-17T10:23:28Z
2020-06-17T08:25:47Z,42.805,6.029,13.2967,4.59980,2470.147,2020-6-17T10:26:32Z
2020-06-17T08:28:50Z,42.805,6.029,13.2967,4.59977,2470.124,2020-6-17T10:29:35Z
2020-06-17T08:31:54Z,42.805,6.029,13.2970,4.59977,2470.133,2020-6-17T10:32:38Z
2020-06-17T08:34:57Z,42.805,6.029,13.2973,4.59975,2470.11,2020-6-17T10:35:41Z
2020-06-17T08:38:00Z,42.805,6.029,13.2967,4.59978,2470.087,2020-6-17T10:38:44Z
2020-06-17T08:41:03Z,42.805,6.029,13.2970,4.59976,2470.124,2020-6-17T10:41:48Z
2020-06-17T08:44:06Z,42.805,6.029,13.2966,4.59978,2470.1,2020-6-17T10:44:51Z
2020-06-17T08:47:10Z,42.805,6.029,13.2967,4.59978,2470.1,2020-6-17T10:47:55Z
2020-06-17T08:50:14Z,42.805,6.029,13.2971,4.59976,2470.124,2020-6-17T10:50:58Z
2020-06-17T08:53:17Z,42.805,6.029,13.2971,4.59976,2470.124,2020-6-17T10:54:01Z
2020-06-17T08:56:20Z,42.805,6.029,13.2965,4.59984,2470.1,2020-6-17T10:57:05Z
2020-06-17T08:59:23Z,42.805,6.029,13.2967,4.59976,2470.1,2020-6-17T11:00:08Z
2020-06-17T09:02:26Z,42.805,6.029,13.2967,4.59976,2470.1,2020-6-17T11:03:11Z
2020-06-17T09:05:30Z,42.805,6.029,13.2971,4.59984,2470.11,2020-6-17T11:06:14Z
2020-06-17T09:08:33Z,42.805,6.029,13.2969,4.59976,2470.063,2020-6-17T11:09:17Z
2020-06-17T09:11:36Z,42.805,6.029,13.2968,4.59976,2470.063,2020-6-17T11:12:21Z
2020-06-17T09:14:39Z,42.805,6.029,13.2963,4.59976,2470.087,2020-6-17T11:15:24Z
2020-06-17T09:17:43Z,42.805,6.029,13.2969,4.59974,2470.124,2020-6-17T11:18:27Z
2020-06-17T09:20:46Z,42.805,6.029,13.2967,4.59974,2470.087,2020-6-17T11:21:30Z
2020-06-17T09:23:49Z,42.805,6.029,13.2968,4.59973,2470.087,2020-6-17T11:24:34Z
2020-06-17T09:26:52Z,42.805,6.029,13.2965,4.59974,2470.1,2020-6-17T11:27:37Z
2020-06-17T09:29:56Z,42.805,6.029,13.2969,4.59976,2470.087,2020-6-17T11:30:40Z
2020-06-17T09:32:59Z,42.805,6.029,13.2967,4.59977,2470.063,2020-6-17T11:33:43Z
2020-06-17T09:36:02Z,42.805,6.029,13.2968,4.59975,2470.087,2020-6-17T11:36:47Z
2020-06-17T09:39:05Z,42.805,6.029,13.2968,4.59975,2470.077,2020-6-17T11:39:50Z
2020-06-17T09:42:09Z,42.805,6.029,13.2972,4.59976,2470.04,2020-6-17T11:42:53Z
2020-06-17T09:45:12Z,42.805,6.029,13.2968,4.59976,2470.026,2020-6-17T11:45:57Z
2020-06-17T09:48:15Z,42.805,6.029,13.2963,4.59976,2470.017,2020-6-17T11:49:00Z
2020-06-17T09:51:18Z,42.805,6.029,13.2967,4.59978,2470.049,2020-6-17T11:52:03Z
2020-06-17T09:54:22Z,42.805,6.029,13.2970,4.59978,2470.063,2020-6-17T11:55:06Z
2020-06-17T09:57:25Z,42.805,6.029,13.2970,4.59979,2470.077,2020-6-17T11:58:09Z
2020-06-17T10:00:28Z,42.805,6.029,13.2971,4.59976,2470.087,2020-6-17T12:01:13Z
2020-06-17T10:03:31Z,42.805,6.029,13.2968,4.59975,2470.077,2020-6-17T12:04:16Z
2020-06-17T10:06:35Z,42.805,6.029,13.2966,4.59978,2470.053,2020-6-17T12:07:19Z
2020-06-17T10:09:38Z,42.805,6.029,13.2969,4.59974,2470.053,2020-6-17T12:10:22Z
2020-06-17T10:12:41Z,42.805,6.029,13.2969,4.59976,2470.077,2020-6-17T12:13:26Z
2020-06-17T10:15:44Z,42.805,6.029,13.2968,4.59976,2470.077,2020-6-17T12:16:29Z
2020-06-17T10:18:48Z,42.805,6.029,13.2968,4.59976,2470.063,2020-6-17T12:19:32Z
2020-06-17T10:21:51Z,42.805,6.029,13.2967,4.59975,2470.063,2020-6-17T12:22:35Z
2020-06-17T10:24:54Z,42.805,6.029,13.2968,4.59976,2470.063,2020-6-17T12:25:39Z
2020-06-17T10:27:57Z,42.805,6.029,13.2968,4.59975,2470.063,2020-6-17T12:28:42Z
2020-06-17T10:31:01Z,42.805,6.029,13.2968,4.59977,2470.063,2020-6-17T12:31:45Z
2020-06-17T10:34:04Z,42.805,6.029,13.2970,4.59974,2470.087,2020-6-17T12:34:48Z
2020-06-17T10:37:07Z,42.805,6.029,13.2971,4.59978,2470.053,2020-6-17T12:37:52Z
2020-06-17T10:40:10Z,42.805,6.029,13.2966,4.59973,2470.1,2020-6-17T12:40:55Z
2020-06-17T10:43:14Z,42.805,6.029,13.2967,4.59976,2470.077,2020-6-17T12:43:58Z
2020-06-17T10:46:17Z,42.805,6.029,13.2970,4.59973,2470.063,2020-6-17T12:47:01Z
2020-06-17T10:49:20Z,42.805,6.029,13.2968,4.59976,2470.087,2020-6-17T12:50:05Z
2020-06-17T10:52:23Z,42.805,6.029,13.2964,4.59985,2470.03,2020-6-17T12:53:08Z
2020-06-17T10:55:26Z,42.805,6.029,13.2968,4.59978,2470.03,2020-6-17T12:56:11Z
2020-06-17T10:58:30Z,42.805,6.029,13.2968,4.59978,2470.053,2020-6-17T12:59:14Z
2020-06-17T11:01:33Z,42.805,6.029,13.2968,4.59974,2470.04,2020-6-17T13:02:17Z
2020-06-17T11:04:36Z,42.805,6.029,13.2969,4.59975,2470.04,2020-6-17T13:05:21Z
2020-06-17T11:07:39Z,42.805,6.029,13.2967,4.59978,2470.03,2020-6-17T13:08:24Z
2020-06-17T11:10:43Z,42.805,6.029,13.2967,4.59976,2470.053,2020-6-17T13:11:27Z
2020-06-17T11:13:46Z,42.805,6.029,13.2968,4.59978,2470.04,2020-6-17T13:14:30Z
2020-06-17T11:16:49Z,42.805,6.029,13.2969,4.59976,2469.993,2020-6-17T13:17:34Z
2020-06-17T11:19:52Z,42.805,6.029,13.2969,4.59978,2470.017,2020-6-17T13:20:37Z
2020-06-17T11:22:56Z,42.805,6.029,13.2967,4.59975,2470.077,2020-6-17T13:23:40Z
2020-06-17T11:25:59Z,42.805,6.029,13.2970,4.59978,2470.04,2020-6-17T13:26:43Z
2020-06-17T11:29:02Z,42.805,6.029,13.2968,4.59980,2470.04,2020-6-17T13:29:47Z
2020-06-17T11:32:06Z,42.805,6.029,13.2971,4.59974,2470.053,2020-6-17T13:32:50Z
2020-06-17T11:35:09Z,42.805,6.029,13.2964,4.59976,2470.053,2020-6-17T13:35:53Z
2020-06-17T11:38:12Z,42.805,6.029,13.2967,4.59974,2470.04,2020-6-17T13:38:57Z
2020-06-17T11:41:15Z,42.805,6.029,13.2968,4.59974,2470.053,2020-6-17T13:42:00Z
2020-06-17T11:44:19Z,42.805,6.029,13.2967,4.59980,2470.04,2020-6-17T13:45:03Z
2020-06-17T11:47:22Z,42.805,6.029,13.2971,4.59974,2470.077,2020-6-17T13:48:06Z
2020-06-17T11:50:25Z,42.805,6.029,13.2965,4.59975,2470.063,2020-6-17T13:51:10Z
2020-06-17T11:53:28Z,42.805,6.029,13.2968,4.59976,2470.04,2020-6-17T13:54:13Z
2020-06-17T11:56:32Z,42.805,6.029,13.2968,4.59975,2470.063,2020-6-17T13:57:16Z
2020-06-17T11:59:35Z,42.805,6.029,13.2967,4.59978,2470.063,2020-6-17T14:00:19Z
2020-06-17T12:02:38Z,42.805,6.029,13.2965,4.59974,2470.04,2020-6-17T14:03:23Z
2020-06-17T12:05:41Z,42.805,6.029,13.2970,4.59976,2470.017,2020-6-17T14:06:26Z
2020-06-17T12:08:45Z,42.805,6.029,13.2968,4.59976,2470.087,2020-6-17T14:09:29Z
2020-06-17T12:11:48Z,42.805,6.029,13.2971,4.59975,2470.04,2020-6-17T14:12:32Z
2020-06-17T12:14:51Z,42.805,6.029,13.2968,4.59982,2470.03,2020-6-17T14:15:36Z
2020-06-17T12:17:54Z,42.805,6.029,13.2968,4.59973,2470.077,2020-6-17T14:18:39Z
2020-06-17T12:20:57Z,42.805,6.029,13.2967,4.59977,2470.049,2020-6-17T14:21:42Z
2020-06-17T12:24:01Z,42.805,6.029,13.2972,4.59973,2470.04,2020-6-17T14:24:45Z
2020-06-17T12:27:04Z,42.805,6.029,13.2968,4.59976,2470.053,2020-6-17T14:27:49Z
2020-06-17T12:30:07Z,42.805,6.029,13.2969,4.59974,2470.04,2020-6-17T14:30:52Z
2020-06-17T12:33:11Z,42.805,6.029,13.2967,4.59975,2470.063,2020-6-17T14:33:55Z
2020-06-17T12:36:14Z,42.805,6.029,13.2968,4.59974,2470.053,2020-6-17T14:36:58Z
2020-06-17T12:39:17Z,42.805,6.029,13.2968,4.59978,2470.04,2020-6-17T14:40:02Z
2020-06-17T12:42:20Z,42.805,6.029,13.2968,4.59975,2470.017,2020-6-17T14:43:05Z
2020-06-17T12:45:24Z,42.805,6.029,13.2968,4.59978,2470.04,2020-6-17T14:46:08Z
2020-06-17T12:48:27Z,42.805,6.029,13.2967,4.59973,2470.04,2020-6-17T14:49:11Z
2020-06-17T12:51:30Z,42.805,6.029,13.2968,4.59975,2470.063,2020-6-17T14:52:15Z
2020-06-17T12:54:33Z,42.805,6.029,13.2967,4.59976,2470.063,2020-6-17T14:55:18Z
2020-06-17T12:57:37Z,42.805,6.029,13.2968,4.59976,2470.087,2020-6-17T14:58:21Z
2020-06-17T13:00:40Z,42.805,6.029,13.2971,4.59976,2470.063,2020-6-17T15:01:24Z
2020-06-17T13:03:43Z,42.805,6.029,13.2971,4.59976,2470.053,2020-6-17T15:04:28Z
2020-06-17T13:06:46Z,42.805,6.029,13.2968,4.59973,2470.063,2020-6-17T15:07:31Z
2020-06-17T13:09:50Z,42.805,6.029,13.2969,4.59974,2470.017,2020-6-17T15:10:34Z
2020-06-17T13:12:53Z,42.805,6.029,13.2973,4.59976,2470.077,2020-6-17T15:13:37Z
2020-06-17T13:15:56Z,42.805,6.029,13.2970,4.59981,2470.049,2020-6-17T15:16:41Z
2020-06-17T13:18:59Z,42.805,6.029,13.2968,4.59978,2470.053,2020-6-17T15:19:44Z
2020-06-17T13:22:03Z,42.805,6.029,13.2968,4.59977,2470.087,2020-6-17T15:22:47Z
2020-06-17T13:25:06Z,42.805,6.029,13.2968,4.59976,2470.087,2020-6-17T15:25:51Z
2020-06-17T13:28:09Z,42.805,6.029,13.2967,4.59973,2470.087,2020-6-17T15:28:54Z
2020-06-17T13:31:13Z,42.805,6.029,13.2970,4.59976,2470.087,2020-6-17T15:31:57Z
2020-06-17T13:34:16Z,42.805,6.029,13.2966,4.59974,2470.063,2020-6-17T15:35:01Z
2020-06-17T13:37:19Z,42.805,6.029,13.2965,4.59973,2470.077,2020-6-17T15:38:04Z
2020-06-17T13:40:23Z,42.805,6.029,13.2970,4.59975,2470.087,2020-6-17T15:41:07Z
2020-06-17T13:43:26Z,42.805,6.029,13.2969,4.59978,2470.063,2020-6-17T15:44:10Z
2020-06-17T13:46:29Z,42.805,6.029,13.2969,4.59976,2470.11,2020-6-17T15:47:14Z
2020-06-17T13:49:32Z,42.805,6.029,13.2970,4.59977,2470.1,2020-6-17T15:50:17Z
2020-06-17T13:52:36Z,42.805,6.029,13.2967,4.59976,2470.11,2020-6-17T15:53:20Z
2020-06-17T13:55:39Z,42.805,6.029,13.2969,4.59976,2470.087,2020-6-17T15:56:23Z
2020-06-17T13:58:42Z,42.805,6.029,13.2970,4.59976,2470.11,2020-6-17T15:59:27Z
2020-06-17T14:01:45Z,42.805,6.029,13.2968,4.59973,2470.147,2020-6-17T16:02:30Z
2020-06-17T14:04:49Z,42.805,6.029,13.2969,4.59979,2470.063,2020-6-17T16:05:33Z
2020-06-17T14:07:52Z,42.805,6.029,13.2969,4.59976,2470.077,2020-6-17T16:08:36Z
2020-06-17T14:10:55Z,42.805,6.029,13.2971,4.59980,2470.11,2020-6-17T16:11:40Z
2020-06-17T14:13:58Z,42.805,6.029,13.2966,4.59979,2470.087,2020-6-17T16:14:43Z
2020-06-17T14:17:02Z,42.805,6.029,13.2967,4.59976,2470.11,2020-6-17T16:17:46Z
2020-06-17T14:20:05Z,42.805,6.029,13.2967,4.59976,2470.11,2020-6-17T16:20:49Z
2020-06-17T14:23:08Z,42.805,6.029,13.2972,4.59975,2470.11,2020-6-17T16:23:53Z
2020-06-17T14:26:11Z,42.805,6.029,13.2967,4.59977,2470.147,2020-6-17T16:26:56Z
2020-06-17T14:29:15Z,42.805,6.029,13.2969,4.59981,2470.119,2020-6-17T16:29:59Z
2020-06-17T14:32:18Z,42.805,6.029,13.2971,4.59978,2470.124,2020-6-17T16:33:03Z
2020-06-17T14:35:21Z,42.805,6.029,13.2969,4.59976,2470.156,2020-6-17T16:36:06Z
2020-06-17T14:38:25Z,42.805,6.029,13.2971,4.59976,2470.156,2020-6-17T16:39:09Z
2020-06-17T14:41:28Z,42.805,6.029,13.2969,4.59976,2470.087,2020-6-17T16:42:12Z
2020-06-17T14:44:31Z,42.805,6.029,13.2967,4.59976,2470.133,2020-6-17T16:45:16Z
2020-06-17T14:47:34Z,42.805,6.029,13.2971,4.59981,2470.133,2020-6-17T16:48:19Z
2020-06-17T14:50:38Z,42.805,6.029,13.2967,4.59973,2470.156,2020-6-17T16:51:22Z
2020-06-17T14:53:41Z,42.805,6.029,13.2972,4.59981,2470.156,2020-6-17T16:54:26Z
2020-06-17T14:56:44Z,42.805,6.029,13.2970,4.59976,2470.156,2020-6-17T16:57:29Z
2020-06-17T14:59:48Z,42.805,6.029,13.2971,4.59976,2470.133,2020-6-17T17:00:32Z
2020-06-17T15:02:51Z,42.805,6.029,13.2968,4.59974,2470.171,2020-6-17T17:03:35Z
2020-06-17T15:05:54Z,42.805,6.029,13.2965,4.59979,2470.11,2020-6-17T17:06:39Z
2020-06-17T15:08:57Z,42.805,6.029,13.2967,4.59978,2470.119,2020-6-17T17:09:42Z
2020-06-17T15:12:01Z,42.805,6.029,13.2964,4.59976,2470.156,2020-6-17T17:12:45Z
2020-06-17T15:15:04Z,42.805,6.029,13.2968,4.59978,2470.133,2020-6-17T17:15:48Z